Home > Weather > Freistadt > Past weeks

Flag for Austria Past Weather in Freistadt, Upper Austria, Austria — Yesterday and Last 2 Weeks

Now
N/A

Passing clouds.


Feels Like: N/A
Forecast: 61 / 77 °F
Wind: 43 mph from Southwest

Location: Rohrbach

Current Time: Jul 26, 2016 at 4:40:52 AM

Latest Report: Jul 26, 2016 at 4:00 AM


Visibility: 3 mi

Pressure: N/A

Humidity: N/A

Dew Point: N/A

Location of FreistadtLocation

Past Weather in Freistadt — Graph

°F

Freistadt Temperature Yesterday

Maximum temperature yesterday: 80 °F (at 2:00 PM)
Minimum temperature yesterday: 60 °F (at 5:00 AM)
Average temperature yesterday: 69 °F

High & Low Weather Summary for the Past Weeks

 TemperatureHumidityPressure
High88 °F (Jul 11, 6:00 PM)100% (Jul 18, 4:00 AM)30.30 "Hg (Jul 18, 4:00 AM)
Low49 °F (Jul 15, 6:00 AM)38% (Jul 11, 5:00 PM)29.78 "Hg (Jul 11, 7:00 PM)
Average65 °F80%30.04 "Hg
* Reported Jul 11 2:00 AM — Jul 26 2:00 AM, Freistadt, Weather by CustomWeather, © 2016

Note: Actual official high and low records may vary slightly from our data, if they occured in-between our weather recording intervals... More about our weather records

Advertising

Freistadt Weather History for the Previous 24 Hours

Scroll right to see more
 ConditionsComfort  
Time TempWeatherWind HumidityBarometerVisibility
2:00 AM
Tue, Jul 26
65 °FMild.1 mph95%30.07 "HgN/A
1:00 AM64 °FMild.1 mph96%30.07 "HgN/A
12:00 AM65 °FMild.No wind96%30.07 "HgN/A
11:00 PM
Mon, Jul 25
66 °FMild.No wind92%30.07 "HgN/A
10:00 PM67 °FMild.1 mph90%30.06 "HgN/A
9:00 PM69 °FMild.1 mph87%30.05 "HgN/A
8:00 PM71 °FMild.1 mph80%30.03 "HgN/A
7:00 PM71 °FMild.1 mph84%30.01 "HgN/A
6:00 PM71 °FMild.2 mph82%30.01 "HgN/A
5:00 PM71 °FMild.1 mph79%30.02 "HgN/A
4:00 PM72 °FMild.No wind74%30.02 "HgN/A
3:00 PM76 °FMild.3 mph61%29.98 "HgN/A
2:00 PM80 °FWarm.2 mph58%29.96 "HgN/A
1:00 PM77 °FWarm.2 mph58%29.98 "HgN/A
12:00 PM77 °FMild.2 mph62%29.99 "HgN/A
11:00 AM74 °FMild.2 mph65%30.01 "HgN/A
10:00 AM73 °FMild.1 mph74%30.01 "HgN/A
9:00 AM68 °FMild.1 mph78%30.05 "HgN/A
8:00 AM64 °FMild.No wind87%30.07 "HgN/A
7:00 AM62 °FCool.1 mph90%30.07 "HgN/A
6:00 AM61 °FCool.1 mph93%30.06 "HgN/A
5:00 AM60 °FCool.1 mph94%30.07 "HgN/A
4:00 AM61 °FCool.1 mph94%30.07 "HgN/A
Weather by CustomWeather, © 2016

See weather overviewHow to use our weather pages